Location: Dunedin
(45.8670°S, 170.5000°E)
Time: 05:36:02
(UTC+13:00)

Cosmos 724 - Pass Details

Date: 24 January 2019
Orbit: 847 x 947 km, 65.6° (Epoch: 19 February)

Event Time Altitude Azimuth Distance (km) Brightness Sun altitude
Rises 22:28:55 0° 329° (NNW) 3,499 7.3 -10.6°
Reaches altitude 10° 22:31:25 10° 329° (NNW) 2,551 6.6 -10.9°
Maximum altitude 22:37:20 86° 55° (NE) 887 4.3 -11.7°
Drops below altitude 10° 22:43:11 10° 144° (SE) 2,521 6.8 -12.4°
Sets 22:45:39 0° 144° (SE) 3,456 7.5 -12.7°
